{"data":{"norad_id":66294,"intl_designator":"2025-248B","name":"SEMI-1L","alt_names":[],"object_type":"PAYLOAD","status":"ACTIVE","operator":null,"country":"TURK","launch_date":"2025-11-02","launch_site_code":"AFETR","launch_vehicle":null,"mission":null,"orbit_class":"UNKNOWN","rcs_meters":null,"size_class":null,"mass_kg":null,"dimensions":null,"purposes":[],"wikipedia_slug":null,"has_3d_model":false,"image_url":null,"decayed_at":null,"tle_current":{"epoch":"2026-05-24T23:53:31.410816Z","epoch_age_seconds":69355,"freshness":"FRESH","line1":"1 66294U 25248B   26144.99550244  .00002847  00000+0  13962-3 0  9997","line2":"2 66294  45.3988 245.8650 0004265 293.5102  66.5336 15.20751304 30982","mean_motion":15.20751304,"eccentricity":0.0004265,"inclination_deg":45.3988,"raan_deg":245.865,"arg_perigee_deg":293.5102,"mean_anomaly_deg":66.5336,"bstar":0.00013962,"rev_number":3098,"period_min":94.690038812553,"perigee_km":500.63809483615,"apogee_km":506.50819358917,"semimajor_km":6881.7101442127,"source":"CELESTRAK","updated_at":"2026-05-25T13:38:06.104287Z"}}}